�N����,����,�~����,�C��,���x,�C��,����,���ϕ���,�ő�u�ԕ���,�ő厞����,���˗�,�I�_���x,�n�����x,�ő啗���N��,DTYPE
"18/12/08","00:10",0.0,6.4,76.4,1015.4,277.8,2.6,4.2,248.2,0.00,2.6,11.0,"00:07:20",1
"18/12/08","00:20",0.0,6.4,76.1,1015.9,275.5,2.5,4.1,291.2,0.00,2.5,10.8,"00:11:12",1
"18/12/08","00:30",0.0,6.4,76.0,1015.6,286.1,2.6,4.8,313.2,0.00,2.5,11.0,"00:27:36",1
"18/12/08","00:40",0.2,6.4,76.2,1015.9,279.3,2.8,4.8,264.2,0.00,2.6,10.7,"00:39:36",1
"18/12/08","00:50",0.0,6.4,76.3,1016.1,292.8,2.8,4.7,306.7,0.00,2.6,10.8,"00:41:20",1
"18/12/08","01:00",0.0,6.3,76.6,1015.6,282.3,2.2,4.1,298.9,0.00,2.5,10.8,"00:52:40",1
"18/12/08","01:10",0.0,6.2,77.3,1015.9,284.8,2.3,4.0,313.4,0.00,2.6,10.8,"01:01:28",1
"18/12/08","01:20",0.0,6.3,77.1,1015.9,287.9,2.6,5.1,321.3,0.00,2.6,10.8,"01:10:56",1
"18/12/08","01:30",0.0,6.2,77.3,1015.9,293.6,2.5,4.1,312.8,0.00,2.6,10.8,"01:23:52",1
"18/12/08","01:40",0.0,6.2,77.5,1015.6,280.2,2.6,3.9,300.2,0.00,2.6,10.7,"01:37:44",1
"18/12/08","01:50",0.0,6.2,76.7,1015.9,277.4,2.8,5.9,329.1,0.00,2.5,10.8,"01:46:00",1
"18/12/08","02:00",0.0,6.3,76.2,1015.9,278.5,2.8,5.8,338.0,0.00,2.5,10.7,"01:53:24",1
"18/12/08","02:10",0.0,6.3,76.0,1015.4,271.9,2.6,4.0,243.1,0.00,2.4,10.8,"02:00:16",1
"18/12/08","02:20",0.0,6.3,75.7,1015.4,279.8,2.5,4.4,309.5,0.00,2.4,10.6,"02:14:16",1
"18/12/08","02:30",0.0,6.2,75.7,1015.6,285.4,2.6,4.2,300.7,0.00,2.3,10.6,"02:25:20",1
"18/12/08","02:40",0.0,6.3,74.9,1015.9,284.8,3.0,5.2,314.4,0.00,2.2,10.6,"02:35:20",1
"18/12/08","02:50",0.0,6.4,73.5,1016.4,294.3,3.5,6.8,309.5,0.00,2.1,10.7,"02:41:36",1
"18/12/08","03:00",0.0,6.4,72.9,1016.4,288.5,2.8,5.4,314.5,0.00,1.9,10.7,"02:53:24",1
"18/12/08","03:10",0.0,6.4,72.6,1016.1,309.7,3.5,6.6,326.7,0.00,1.9,10.6,"03:09:30",1
"18/12/08","03:20",0.0,6.5,71.6,1016.6,309.5,3.9,6.3,320.3,0.00,1.8,10.5,"03:18:24",1
"18/12/08","03:30",0.0,6.4,71.7,1016.4,284.6,2.7,4.5,332.6,0.00,1.7,10.6,"03:26:16",1
"18/12/08","03:40",0.0,6.2,73.0,1016.1,294.0,2.5,4.0,318.4,0.00,1.8,10.4,"03:31:04",1
"18/12/08","03:50",0.0,6.2,73.6,1016.1,301.4,2.7,4.4,322.1,0.00,1.9,10.5,"03:43:28",1
"18/12/08","04:00",0.0,6.2,74.0,1016.4,294.8,2.0,3.2,332.2,0.00,2.0,10.6,"03:54:56",1
"18/12/08","04:10",0.0,6.2,74.0,1016.1,307.4,2.5,6.4,330.9,0.00,2.0,10.6,"04:00:02",1
"18/12/08","04:20",0.0,6.1,74.0,1015.9,311.0,3.1,5.1,321.4,0.00,1.9,10.6,"04:11:36",1
"18/12/08","04:30",0.0,6.1,74.3,1015.9,302.5,2.7,4.8,322.1,0.00,1.9,10.4,"04:28:48",1
"18/12/08","04:40",0.0,6.1,74.6,1016.1,306.0,2.6,4.5,319.0,0.00,2.0,10.4,"04:37:52",1
"18/12/08","04:50",0.0,6.0,74.5,1016.1,310.7,2.8,4.5,311.5,0.00,1.9,10.4,"04:44:48",1
"18/12/08","05:00",0.0,6.0,73.6,1015.9,313.7,3.1,5.0,319.0,0.00,1.7,10.4,"04:56:00",1
"18/12/08","05:10",0.0,6.0,73.6,1016.4,304.0,3.1,5.6,327.2,0.00,1.7,10.5,"05:03:36",1
"18/12/08","05:20",0.0,5.8,73.3,1016.4,301.5,3.0,5.4,339.1,0.00,1.4,10.3,"05:11:04",1
"18/12/08","05:30",0.0,5.6,74.3,1016.4,292.8,2.3,3.4,315.2,0.00,1.4,10.2,"05:21:04",1
"18/12/08","05:40",0.0,5.5,75.4,1016.8,316.7,3.2,5.1,331.4,0.00,1.5,10.4,"05:36:32",1
"18/12/08","05:50",0.0,5.5,75.5,1016.4,302.9,2.8,5.7,309.3,0.00,1.6,10.1,"05:45:28",1
"18/12/08","06:00",0.0,5.1,76.2,1016.1,285.0,1.8,2.8,271.5,0.00,1.3,10.3,"05:57:28",1
"18/12/08","06:10",0.0,5.0,77.9,1016.1,276.7,2.0,2.8,267.4,0.00,1.5,10.0,"06:07:44",1
"18/12/08","06:20",0.0,4.8,78.6,1016.1,279.4,1.5,2.9,275.5,0.00,1.4,10.1,"06:10:56",1
"18/12/08","06:30",0.0,4.2,79.1,1016.1,281.4,1.0,1.2,300.4,0.00,0.9,9.9,"06:23:04",1
"18/12/08","06:40",0.0,3.9,80.8,1015.9,291.6,1.3,2.2,316.7,0.00,0.9,10.1,"06:37:12",1
"18/12/08","06:50",0.0,4.0,82.3,1015.6,285.5,1.6,2.6,317.2,0.00,1.3,10.0,"06:48:02",1
"18/12/08","07:00",0.0,4.1,82.8,1015.9,293.5,1.2,2.5,313.1,0.00,1.5,9.9,"06:52:56",1
"18/12/08","07:10",0.0,4.0,84.1,1016.1,287.0,1.2,1.8,306.2,0.00,1.6,10.0,"07:09:40",1
"18/12/08","07:20",0.0,4.2,84.9,1015.9,293.5,1.6,2.5,269.2,0.00,1.9,9.8,"07:18:08",1
"18/12/08","07:30",0.0,4.6,85.3,1015.9,279.6,1.6,2.2,269.2,0.00,2.4,9.9,"07:26:08",1
"18/12/08","07:40",0.0,4.9,84.5,1016.6,279.5,1.8,3.3,254.3,0.00,2.6,10.0,"07:35:52",1
"18/12/08","07:50",0.0,4.9,83.1,1016.6,312.6,1.8,3.4,315.4,0.00,2.3,9.9,"07:44:00",1
"18/12/08","08:00",0.0,5.0,85.4,1017.1,292.0,1.2,3.2,315.2,0.00,2.8,9.8,"07:55:44",1
"18/12/08","08:10",0.0,5.6,82.9,1016.8,284.6,0.7,1.6,318.1,0.01,3.0,10.0,"08:00:48",1
"18/12/08","08:20",0.0,6.1,80.1,1017.5,280.0,1.3,3.3,320.0,0.03,3.0,9.7,"08:18:08",1
"18/12/08","08:30",0.0,5.9,78.8,1017.5,249.3,2.0,4.4,241.4,0.04,2.5,9.9,"08:28:32",1
"18/12/08","08:40",0.0,5.9,78.5,1017.5,270.3,2.1,3.5,260.6,0.02,2.5,9.9,"08:32:48",1
"18/12/08","08:50",0.0,6.2,77.5,1017.8,280.8,2.2,5.5,341.1,0.05,2.6,9.8,"08:46:16",1
"18/12/08","09:00",0.0,6.2,77.7,1017.8,264.1,2.5,4.0,261.6,0.05,2.6,9.9,"08:53:28",1
"18/12/08","09:10",0.0,6.4,76.7,1017.8,248.7,2.5,5.0,241.6,0.13,2.7,9.9,"09:05:38",1
"18/12/08","09:20",0.0,6.7,74.4,1017.8,248.3,2.8,5.2,237.0,0.16,2.5,10.1,"09:14:28",1
"18/12/08","09:30",0.0,6.9,72.3,1018.0,250.8,2.3,5.5,232.4,0.20,2.3,10.2,"09:29:20",1
"18/12/08","09:40",0.0,7.1,71.0,1017.8,238.8,3.2,7.0,228.8,0.21,2.2,10.1,"09:39:46",1
"18/12/08","09:50",0.0,7.8,70.7,1018.0,253.1,2.3,4.1,231.6,0.24,2.9,10.2,"09:43:52",1
"18/12/08","10:00",0.0,8.2,66.4,1018.0,268.7,2.0,5.0,230.9,0.26,2.4,10.4,"09:59:12",1
"18/12/08","10:10",0.0,8.5,64.4,1017.8,282.9,2.2,3.4,316.3,0.28,2.2,10.4,"10:01:36",1
"18/12/08","10:20",0.0,8.8,63.7,1017.5,269.9,2.2,4.3,262.7,0.30,2.3,10.6,"10:12:24",1
"18/12/08","10:30",0.0,8.6,63.2,1017.8,255.2,2.7,5.1,234.8,0.34,2.0,10.8,"10:22:56",1
"18/12/08","10:40",0.0,9.1,62.4,1017.5,259.7,2.7,6.2,257.7,0.35,2.3,11.0,"10:34:56",1
"18/12/08","10:50",0.0,9.4,59.6,1018.0,281.1,2.2,5.7,228.0,0.39,2.0,11.1,"10:41:04",1
"18/12/08","11:00",0.0,9.6,58.3,1017.8,298.4,2.6,5.8,333.1,0.36,1.9,11.2,"10:59:44",1
"18/12/08","11:10",0.0,9.2,58.4,1017.5,321.1,4.2,7.8,339.8,0.39,1.5,11.4,"11:04:24",1
"18/12/08","11:20",0.0,9.5,59.0,1017.3,327.2,4.0,7.1,339.9,0.41,1.9,11.5,"11:10:32",1
"18/12/08","11:30",0.0,9.7,58.1,1017.1,295.9,2.7,5.8,359.6,0.40,1.9,11.7,"11:27:28",1
"18/12/08","11:40",0.0,9.5,56.5,1016.6,299.4,3.2,8.9,338.3,0.42,1.3,12.0,"11:34:56",1
"18/12/08","11:50",0.0,9.7,55.5,1016.6,289.1,3.2,6.5,330.6,0.43,1.3,11.9,"11:48:16",1
"18/12/08","12:00",0.0,9.9,55.6,1016.6,280.6,3.4,6.7,296.6,0.48,1.5,12.0,"11:54:56",1
"18/12/08","12:10",0.0,10.1,54.6,1016.4,265.4,3.0,6.5,231.5,0.49,1.4,12.1,"12:03:52",1
"18/12/08","12:20",0.0,10.3,56.2,1015.6,311.7,2.6,5.4,347.8,0.49,2.0,12.3,"12:18:24",1
"18/12/08","12:30",0.0,9.8,55.9,1015.9,320.2,3.1,5.2,328.4,0.34,1.5,12.3,"12:21:12",1
"18/12/08","12:40",0.0,9.3,56.0,1016.1,322.7,4.1,8.3,338.4,0.32,1.0,12.5,"12:34:16",1
"18/12/08","12:50",0.0,9.1,57.0,1015.9,325.4,4.2,7.0,330.9,0.12,1.1,12.4,"12:40:40",1
"18/12/08","13:00",0.0,9.4,56.2,1015.9,320.5,3.6,5.6,328.9,0.20,1.2,12.5,"12:56:16",1
"18/12/08","13:10",0.0,9.7,55.3,1015.9,290.6,3.0,6.6,327.5,0.20,1.2,12.5,"13:07:52",1
"18/12/08","13:20",0.0,9.9,53.5,1015.6,288.4,3.0,5.5,308.9,0.31,0.9,12.8,"13:14:32",1
"18/12/08","13:30",0.0,9.7,55.0,1015.9,309.8,3.1,5.8,320.0,0.25,1.1,12.7,"13:23:04",1
"18/12/08","13:40",0.0,10.0,54.0,1015.6,316.9,3.5,5.7,316.9,0.31,1.2,12.7,"13:39:36",1
"18/12/08","13:50",0.0,10.4,51.5,1015.4,310.7,2.6,5.8,325.2,0.40,0.9,12.8,"13:49:36",1
"18/12/08","14:00",0.0,9.6,53.5,1016.1,329.0,3.9,8.6,334.3,0.23,0.7,12.9,"13:51:04",1
"18/12/08","14:10",0.0,9.5,53.7,1015.9,328.6,4.7,7.9,353.9,0.21,0.6,12.9,"14:00:48",1
"18/12/08","14:20",0.0,9.4,53.6,1015.6,328.7,5.2,7.4,334.6,0.22,0.5,12.8,"14:12:32",1
"18/12/08","14:30",0.0,9.8,50.5,1015.6,327.3,3.6,6.6,321.4,0.28,0.1,12.7,"14:23:52",1
"18/12/08","14:40",0.0,10.3,51.1,1015.9,321.1,3.0,6.0,359.1,0.26,0.7,13.0,"14:30:08",1
"18/12/08","14:50",0.0,9.5,49.8,1015.9,263.4,3.1,5.2,236.3,0.20,-0.4,12.9,"14:43:52",1
"18/12/08","15:00",0.0,9.4,50.0,1015.6,260.3,3.0,5.8,237.9,0.17,-0.5,12.9,"14:58:50",1
"18/12/08","15:10",0.0,9.4,49.8,1016.1,265.6,3.0,4.8,299.9,0.14,-0.5,12.9,"15:03:20",1
"18/12/08","15:20",0.0,9.5,49.5,1015.9,295.1,2.5,4.8,327.4,0.13,-0.5,12.8,"15:17:52",1
"18/12/08","15:30",0.0,9.3,50.0,1016.1,291.6,2.7,4.5,284.3,0.05,-0.5,12.7,"15:29:52",1
"18/12/08","15:40",0.0,9.1,50.2,1015.9,280.3,3.0,5.0,310.7,0.03,-0.7,12.6,"15:34:56",1
"18/12/08","15:50",0.0,9.1,51.0,1016.1,293.5,3.1,5.4,317.8,0.07,-0.5,12.3,"15:42:08",1
"18/12/08","16:00",0.0,8.9,50.8,1016.4,288.9,3.1,5.9,314.2,0.05,-0.7,12.4,"15:56:00",1
"18/12/08","16:10",0.0,9.1,50.0,1016.4,306.2,3.4,5.9,336.7,0.04,-0.7,12.4,"16:09:12",1
"18/12/08","16:20",0.0,8.6,49.8,1016.1,287.0,3.4,5.6,309.6,0.02,-1.2,12.1,"16:17:28",1
"18/12/08","16:30",0.0,8.1,52.9,1016.4,307.5,2.8,4.8,319.6,0.00,-0.9,12.2,"16:26:48",1
"18/12/08","16:40",0.0,7.8,54.2,1016.1,294.0,2.5,4.2,319.4,0.00,-0.8,12.0,"16:38:08",1
"18/12/08","16:50",0.0,7.7,54.4,1016.4,284.1,3.0,6.2,308.4,0.00,-0.9,12.0,"16:41:52",1
"18/12/08","17:00",0.0,7.5,54.9,1016.4,299.5,3.1,5.7,328.1,0.00,-0.9,11.8,"16:53:36",1
"18/12/08","17:10",0.0,7.2,56.0,1016.8,299.3,2.8,4.9,261.8,0.00,-0.9,11.6,"17:03:36",1
"18/12/08","17:20",0.0,7.0,56.2,1016.8,282.0,2.7,4.0,289.6,0.00,-1.1,11.6,"17:18:08",1
"18/12/08","17:30",0.0,6.9,54.7,1017.1,285.6,3.5,5.8,299.2,0.00,-1.5,11.6,"17:25:04",1
"18/12/08","17:40",0.0,6.6,55.8,1016.6,297.0,2.7,5.0,335.1,0.00,-1.6,11.5,"17:37:28",1
"18/12/08","17:50",0.0,6.3,58.2,1016.4,297.7,2.5,4.1,301.2,0.00,-1.3,11.4,"17:42:24",1
"18/12/08","18:00",0.0,5.9,60.0,1016.6,291.5,1.8,3.7,324.5,0.00,-1.2,11.3,"17:50:32",1
"18/12/08","18:10",0.0,5.6,62.7,1016.4,281.5,1.7,2.4,276.4,0.00,-0.9,11.2,"18:05:04",1
"18/12/08","18:20",0.0,5.7,62.3,1016.8,279.8,2.2,3.5,301.4,0.00,-0.9,11.0,"18:14:58",1
"18/12/08","18:30",0.0,5.7,60.9,1016.8,280.5,2.3,3.5,269.0,0.00,-1.2,11.0,"18:20:18",1
"18/12/08","18:40",0.0,5.7,59.4,1017.1,280.4,3.0,5.1,285.3,0.00,-1.5,10.7,"18:33:40",1
"18/12/08","18:50",0.0,5.7,58.7,1017.1,283.8,3.2,6.6,301.7,0.00,-1.7,10.9,"18:44:32",1
"18/12/08","19:00",0.0,5.6,58.7,1017.1,290.2,3.0,5.0,345.0,0.00,-1.8,10.7,"18:59:32",1
"18/12/08","19:10",0.0,5.4,59.4,1017.8,284.3,2.6,4.5,321.7,0.00,-1.8,10.6,"19:03:48",1
"18/12/08","19:20",0.0,5.1,60.0,1017.8,284.3,2.6,4.1,294.0,0.00,-2.0,10.5,"19:12:28",1
"18/12/08","19:30",0.0,5.2,60.1,1017.5,284.1,3.1,5.0,307.4,0.00,-1.9,10.4,"19:28:38",1
"18/12/08","19:40",0.0,5.0,60.4,1017.3,286.1,2.8,4.1,291.6,0.00,-2.0,10.3,"19:34:16",1
"18/12/08","19:50",0.0,4.6,62.1,1017.5,297.1,2.5,3.4,307.9,0.00,-2.0,10.2,"19:46:24",1
"18/12/08","20:00",0.0,4.4,63.7,1017.3,300.4,2.6,4.0,338.3,0.00,-1.8,10.2,"19:59:04",1
"18/12/08","20:10",0.0,4.3,64.1,1017.3,311.1,3.1,7.0,320.9,0.00,-1.8,10.1,"20:06:40",1
"18/12/08","20:20",0.0,4.2,64.5,1017.1,310.3,2.7,5.5,331.5,0.00,-1.9,10.0,"20:12:48",1
"18/12/08","20:30",0.0,4.0,65.4,1017.5,297.6,2.5,3.4,328.3,0.00,-1.9,10.1,"20:21:20",1
"18/12/08","20:40",0.0,3.9,65.6,1017.8,303.2,2.3,4.3,327.6,0.00,-1.9,9.9,"20:39:42",1
"18/12/08","20:50",0.0,4.0,65.8,1017.1,304.1,2.8,5.7,307.0,0.00,-1.8,9.7,"20:49:14",1
"18/12/08","21:00",0.0,3.9,65.5,1017.5,300.8,3.0,6.0,312.0,0.00,-1.9,9.8,"20:50:32",1
"18/12/08","21:10",0.0,3.9,65.5,1017.3,296.4,2.7,4.4,315.4,0.00,-1.9,9.7,"21:05:16",1
"18/12/08","21:20",0.0,3.7,65.6,1017.8,295.5,2.2,3.9,322.5,0.00,-2.1,9.7,"21:12:48",1
"18/12/08","21:30",0.0,3.6,66.2,1018.0,302.9,2.1,4.5,273.0,0.00,-2.1,9.5,"21:20:08",1
"18/12/08","21:40",0.0,3.5,66.6,1018.0,300.8,2.6,4.7,337.2,0.00,-2.1,9.6,"21:32:42",1
"18/12/08","21:50",0.0,3.4,67.0,1017.8,291.6,2.3,4.8,315.2,0.00,-2.1,9.3,"21:42:08",1
"18/12/08","22:00",0.0,3.4,66.8,1018.0,301.7,2.8,5.9,327.0,0.00,-2.1,9.5,"21:56:26",1
"18/12/08","22:10",0.0,3.5,65.9,1018.0,287.8,3.1,5.6,306.4,0.00,-2.2,9.4,"22:04:24",1
"18/12/08","22:20",0.0,3.3,65.7,1018.0,291.5,2.3,4.0,317.3,0.00,-2.5,9.5,"22:19:48",1
"18/12/08","22:30",0.0,3.3,65.9,1018.2,283.7,3.0,6.4,335.2,0.00,-2.4,9.2,"22:26:46",1
"18/12/08","22:40",0.0,3.4,64.9,1018.2,279.1,2.7,4.7,302.1,0.00,-2.5,9.2,"22:32:52",1
"18/12/08","22:50",0.0,3.4,64.5,1017.8,279.8,2.8,4.5,312.7,0.00,-2.6,9.4,"22:41:36",1
"18/12/08","23:00",0.0,3.5,63.9,1018.2,279.3,3.5,6.0,306.4,0.00,-2.6,9.3,"22:59:38",1
"18/12/08","23:10",0.0,3.6,63.7,1018.5,270.7,3.2,5.0,282.9,0.00,-2.6,9.2,"23:00:40",1
"18/12/08","23:20",0.0,3.5,63.9,1018.0,282.5,2.6,4.4,264.9,0.00,-2.6,9.2,"23:15:06",1
"18/12/08","23:30",0.0,3.4,64.3,1018.7,278.0,3.1,5.2,340.8,0.00,-2.7,9.0,"23:29:18",1
"18/12/08","23:40",0.0,3.5,64.3,1018.7,278.4,2.8,7.7,319.8,0.00,-2.6,9.2,"23:31:36",1
"18/12/08","23:50",0.0,3.5,64.6,1018.7,274.5,3.1,6.0,261.5,0.00,-2.5,9.1,"23:48:38",1
"18/12/08","24:00",0.0,3.3,65.0,1018.7,273.7,2.8,5.0,286.8,0.00,-2.6,9.1,"23:55:28",1
